timestamp,wind_dir_avg,wind_spd_avg,wind_spd_max_dir,wind_spd_gust,battery_voltage,lat,long
2023-09-15 00:04:00+00:00,177.0,4.64,179.0,4.99,12.49,47.59359,-54.27349
2023-09-15 00:14:01+00:00,180.0,4.36,182.0,4.97,12.49,47.59359,-54.27349
2023-09-15 00:24:01+00:00,180.0,4.07,182.0,4.52,12.49,47.59359,-54.27349
2023-09-15 00:34:01+00:00,178.0,4.66,179.0,5.37,12.49,47.59359,-54.27349
2023-09-15 00:44:01+00:00,179.0,5.35,177.0,6.09,12.49,47.59359,-54.27349
2023-09-15 00:54:01+00:00,174.0,5.38,175.0,6.06,12.49,47.59359,-54.27349
2023-09-15 01:04:01+00:00,173.0,5.04,171.0,5.6,12.49,47.59359,-54.27349
2023-09-15 01:14:01+00:00,174.0,5.24,174.0,6.08,12.41,47.59359,-54.27349
2023-09-15 01:24:01+00:00,176.0,4.6,175.0,5.17,12.41,47.59359,-54.27349
2023-09-15 01:34:01+00:00,176.0,4.66,175.0,5.22,12.41,47.59359,-54.27349
2023-09-15 01:44:01+00:00,175.0,4.57,177.0,5.08,12.41,47.59359,-54.27349
2023-09-15 01:54:01+00:00,183.0,5.75,182.0,6.32,12.41,47.59359,-54.27349
2023-09-15 02:04:01+00:00,177.0,4.73,180.0,5.55,12.41,47.59359,-54.27349
2023-09-15 02:14:01+00:00,179.0,4.22,182.0,4.68,12.41,47.59359,-54.27349
2023-09-15 02:24:01+00:00,185.0,5.17,187.0,5.61,12.41,47.59359,-54.27349
2023-09-15 02:34:01+00:00,188.0,5.02,185.0,5.92,12.41,47.59359,-54.27349
2023-09-15 02:44:01+00:00,193.0,5.85,210.0,6.77,12.41,47.59359,-54.27349
2023-09-15 02:54:01+00:00,208.0,6.29,211.0,7.21,12.41,47.59359,-54.27349
2023-09-15 03:04:01+00:00,207.0,7.05,210.0,9.47,12.41,47.59359,-54.27349
2023-09-15 03:14:01+00:00,209.0,7.56,209.0,8.82,12.41,47.59359,-54.27349
2023-09-15 03:24:01+00:00,204.0,8.29,203.0,9.33,12.41,47.59359,-54.27349
2023-09-15 03:34:01+00:00,207.0,8.88,210.0,9.76,12.41,47.59359,-54.27349
2023-09-15 03:44:01+00:00,200.0,9.52,202.0,10.59,12.41,47.59359,-54.27349
2023-09-15 03:54:01+00:00,203.0,8.54,202.0,9.69,12.41,47.59359,-54.27349
2023-09-15 04:04:01+00:00,208.0,8.77,209.0,9.82,12.41,47.59359,-54.27349
2023-09-15 04:14:00+00:00,215.0,7.95,210.0,9.29,12.41,47.59359,-54.27349
2023-09-15 04:24:00+00:00,213.0,7.23,212.0,8.15,12.41,47.59359,-54.27349
2023-09-15 04:34:00+00:00,215.0,7.92,216.0,8.68,12.41,47.59359,-54.27349
2023-09-15 04:44:00+00:00,212.0,7.66,209.0,8.97,12.41,47.59359,-54.27349
2023-09-15 04:54:00+00:00,211.0,8.4,215.0,9.31,12.41,47.59359,-54.27349
2023-09-15 05:04:00+00:00,212.0,8.06,211.0,8.93,12.41,47.59359,-54.27349
2023-09-15 05:14:00+00:00,213.0,8.12,213.0,9.46,12.41,47.59359,-54.27349
2023-09-15 05:24:00+00:00,214.0,7.7,215.0,8.44,12.41,47.59359,-54.27349
2023-09-15 05:34:00+00:00,208.0,6.49,212.0,7.27,12.41,47.59359,-54.27349
2023-09-15 05:44:00+00:00,204.0,6.15,200.0,6.95,12.41,47.59359,-54.27349
2023-09-15 05:54:00+00:00,209.0,6.38,214.0,7.33,12.41,47.59359,-54.27349
2023-09-15 06:04:00+00:00,205.0,6.48,206.0,7.28,12.41,47.59359,-54.27349
2023-09-15 06:14:01+00:00,209.0,6.71,212.0,7.49,12.33,47.59359,-54.27349
2023-09-15 06:24:01+00:00,210.0,6.46,217.0,7.18,12.33,47.59359,-54.27349
2023-09-15 06:34:01+00:00,220.0,7.36,227.0,8.5,12.33,47.59359,-54.27349
2023-09-15 06:44:01+00:00,216.0,7.05,216.0,8.1,12.33,47.59359,-54.27349
2023-09-15 06:54:01+00:00,209.0,8.01,205.0,9.32,12.33,47.59359,-54.27349
2023-09-15 07:04:01+00:00,211.0,7.74,221.0,9.38,12.33,47.59359,-54.27349
2023-09-15 07:14:00+00:00,213.0,7.72,222.0,8.61,12.33,47.59359,-54.27349
2023-09-15 07:24:00+00:00,211.0,7.56,212.0,8.15,12.33,47.59359,-54.27349
2023-09-15 07:34:00+00:00,214.0,7.16,225.0,8.75,12.33,47.59359,-54.27349
2023-09-15 07:44:00+00:00,206.0,7.35,209.0,8.02,12.33,47.59359,-54.27349
2023-09-15 07:54:00+00:00,213.0,6.61,219.0,7.7,12.33,47.59359,-54.27349
2023-09-15 08:04:00+00:00,211.0,6.85,213.0,7.5,12.33,47.59359,-54.27349
2023-09-15 08:14:00+00:00,214.0,6.44,219.0,7.07,12.33,47.59359,-54.27349
2023-09-15 08:24:00+00:00,215.0,7.29,221.0,8.07,12.33,47.59359,-54.27349
2023-09-15 08:34:00+00:00,216.0,6.97,214.0,8.31,12.33,47.59359,-54.27349
2023-09-15 08:44:00+00:00,219.0,7.26,223.0,8.37,12.33,47.59359,-54.27349
2023-09-15 08:54:00+00:00,220.0,7.04,212.0,8.04,12.33,47.59359,-54.27349
2023-09-15 09:04:00+00:00,221.0,6.92,223.0,8.44,12.33,47.59359,-54.27349
2023-09-15 09:14:01+00:00,222.0,7.87,221.0,9.38,12.33,47.59359,-54.27349
2023-09-15 09:24:01+00:00,224.0,7.51,222.0,8.85,12.33,47.59359,-54.27349
2023-09-15 09:34:01+00:00,219.0,8.32,217.0,10.96,12.33,47.59359,-54.27349
2023-09-15 09:44:01+00:00,215.0,9.36,213.0,10.42,12.33,47.59359,-54.27349
2023-09-15 09:54:01+00:00,216.0,9.15,214.0,10.47,12.33,47.59359,-54.27349
2023-09-15 10:04:01+00:00,218.0,8.21,217.0,9.22,12.33,47.59359,-54.27349
2023-09-15 10:14:00+00:00,229.0,7.0,228.0,8.49,12.25,47.59359,-54.27349
2023-09-15 10:24:00+00:00,215.0,7.66,209.0,9.28,12.25,47.59359,-54.27349
2023-09-15 10:34:00+00:00,218.0,7.61,219.0,8.51,12.25,47.59359,-54.27349
2023-09-15 10:44:00+00:00,213.0,8.52,216.0,10.0,12.25,47.59359,-54.27349
2023-09-15 10:54:00+00:00,217.0,8.51,218.0,9.63,12.25,47.59359,-54.27349
2023-09-15 11:04:00+00:00,219.0,7.68,217.0,9.19,12.25,47.59359,-54.27349
2023-09-15 11:14:00+00:00,220.0,7.94,220.0,8.96,12.41,47.59359,-54.27349
2023-09-15 11:24:00+00:00,218.0,7.91,221.0,8.89,12.41,47.59359,-54.27349
2023-09-15 11:34:00+00:00,227.0,8.43,225.0,10.33,12.41,47.59359,-54.27349
2023-09-15 11:44:00+00:00,213.0,8.39,212.0,9.21,12.41,47.59359,-54.27349
2023-09-15 11:54:00+00:00,213.0,7.64,214.0,9.39,12.41,47.59359,-54.27349
2023-09-15 12:04:00+00:00,226.0,7.83,225.0,8.77,12.41,47.59359,-54.27349
2023-09-15 12:14:01+00:00,223.0,7.08,225.0,8.12,13.05,47.59359,-54.27349
2023-09-15 12:24:01+00:00,224.0,8.72,221.0,9.53,13.05,47.59359,-54.27349
2023-09-15 12:34:01+00:00,218.0,8.66,218.0,9.88,13.05,47.59359,-54.27349
2023-09-15 12:44:01+00:00,220.0,7.87,223.0,8.87,13.05,47.59359,-54.27349
2023-09-15 12:54:01+00:00,214.0,8.09,216.0,9.0,13.05,47.59359,-54.27349
2023-09-15 13:04:01+00:00,214.0,7.36,217.0,8.05,13.05,47.59359,-54.27349
2023-09-15 13:14:00+00:00,212.0,7.03,212.0,7.73,12.81,47.59359,-54.27349
2023-09-15 13:24:00+00:00,223.0,6.14,217.0,6.99,12.81,47.59359,-54.27349
2023-09-15 13:34:00+00:00,224.0,6.64,226.0,8.35,12.81,47.59359,-54.27349
2023-09-15 13:44:00+00:00,220.0,6.42,218.0,7.32,12.81,47.59359,-54.27349
2023-09-15 13:54:00+00:00,228.0,7.11,228.0,7.99,12.81,47.59359,-54.27349
2023-09-15 14:04:00+00:00,229.0,6.77,229.0,7.9,12.81,47.59359,-54.27349
2023-09-15 14:14:00+00:00,232.0,6.94,230.0,8.04,13.05,47.59359,-54.27349
2023-09-15 14:24:00+00:00,233.0,7.72,225.0,9.57,13.05,47.59359,-54.27349
2023-09-15 14:34:00+00:00,233.0,7.91,224.0,9.16,13.05,47.59359,-54.27349
2023-09-15 14:44:00+00:00,229.0,6.74,230.0,7.78,13.05,47.59359,-54.27349
2023-09-15 14:54:00+00:00,220.0,7.66,223.0,8.86,13.05,47.59359,-54.27349
2023-09-15 15:04:00+00:00,222.0,7.85,228.0,9.21,13.05,47.59359,-54.27349
2023-09-15 15:14:00+00:00,219.0,8.8,220.0,10.36,13.05,47.59359,-54.27349
2023-09-15 15:24:00+00:00,214.0,8.6,216.0,10.19,13.05,47.59359,-54.27349
2023-09-15 15:34:00+00:00,220.0,8.53,228.0,9.78,13.05,47.59359,-54.27349
2023-09-15 15:44:00+00:00,213.0,8.0,215.0,9.24,13.05,47.59359,-54.27349
2023-09-15 15:54:00+00:00,218.0,8.42,218.0,9.55,13.05,47.59359,-54.27349
2023-09-15 16:04:00+00:00,214.0,8.24,220.0,9.47,13.05,47.59359,-54.27349
2023-09-15 16:14:00+00:00,212.0,8.4,215.0,9.44,13.37,47.59359,-54.27349
2023-09-15 16:24:00+00:00,218.0,6.96,216.0,8.19,13.37,47.59359,-54.27349
2023-09-15 16:34:00+00:00,209.0,7.42,210.0,8.38,13.37,47.59359,-54.27349
2023-09-15 16:44:00+00:00,219.0,7.14,222.0,7.95,13.37,47.59359,-54.27349
2023-09-15 16:54:00+00:00,219.0,8.29,221.0,9.18,13.37,47.59359,-54.27349
2023-09-15 17:04:00+00:00,215.0,8.17,217.0,9.26,13.37,47.59359,-54.27349
2023-09-15 17:14:00+00:00,215.0,8.4,216.0,9.95,13.53,47.59359,-54.27349
2023-09-15 17:24:00+00:00,212.0,9.62,213.0,10.68,13.53,47.59359,-54.27349
2023-09-15 17:34:00+00:00,219.0,8.22,216.0,9.62,13.53,47.59359,-54.27349
2023-09-15 17:44:00+00:00,222.0,7.71,222.0,8.89,13.53,47.59359,-54.27349
2023-09-15 17:54:00+00:00,221.0,7.31,222.0,8.26,13.53,47.59359,-54.27349
2023-09-15 18:04:00+00:00,218.0,7.19,217.0,7.97,13.53,47.59359,-54.27349
2023-09-15 18:14:00+00:00,215.0,6.66,216.0,7.26,13.21,47.59359,-54.27349
2023-09-15 18:24:00+00:00,220.0,7.03,217.0,8.17,13.21,47.59359,-54.27349
2023-09-15 18:34:00+00:00,211.0,7.16,207.0,7.62,13.21,47.59359,-54.27349
2023-09-15 18:44:00+00:00,213.0,6.35,215.0,6.78,13.21,47.59359,-54.27349
2023-09-15 18:54:00+00:00,221.0,5.45,216.0,6.03,13.21,47.59359,-54.27349
2023-09-15 19:04:00+00:00,216.0,6.53,225.0,7.43,13.21,47.59359,-54.27349
2023-09-15 19:14:00+00:00,216.0,7.42,219.0,8.53,13.37,47.59359,-54.27349
2023-09-15 19:24:00+00:00,216.0,6.11,231.0,6.73,13.37,47.59359,-54.27349
2023-09-15 19:34:00+00:00,214.0,6.58,218.0,7.15,13.37,47.59359,-54.27349
2023-09-15 19:44:00+00:00,218.0,6.83,218.0,7.66,13.37,47.59359,-54.27349
2023-09-15 19:54:00+00:00,222.0,6.84,220.0,7.85,13.37,47.59359,-54.27349
2023-09-15 20:04:00+00:00,221.0,6.14,218.0,7.0,13.37,47.59359,-54.27349
2023-09-15 20:14:00+00:00,221.0,5.58,221.0,6.19,13.13,47.59359,-54.27349
2023-09-15 20:24:00+00:00,220.0,5.38,218.0,5.77,13.13,47.59359,-54.27349
2023-09-15 20:34:00+00:00,232.0,5.98,241.0,7.53,13.13,47.59359,-54.27349
2023-09-15 20:44:00+00:00,237.0,6.04,240.0,6.83,13.13,47.59359,-54.27349
2023-09-15 20:54:00+00:00,226.0,6.85,230.0,7.66,13.13,47.59359,-54.27349
2023-09-15 21:04:00+00:00,225.0,7.18,227.0,7.92,13.13,47.59359,-54.27349
2023-09-15 21:14:00+00:00,231.0,6.64,232.0,7.61,12.81,47.59359,-54.27349
2023-09-15 21:24:00+00:00,233.0,6.76,237.0,7.48,12.81,47.59359,-54.27349
2023-09-15 21:34:00+00:00,229.0,6.65,232.0,7.85,12.81,47.59359,-54.27349
2023-09-15 21:44:00+00:00,235.0,7.02,238.0,7.48,12.81,47.59359,-54.27349
2023-09-15 21:54:00+00:00,218.0,5.47,232.0,6.93,12.81,47.59359,-54.27349
2023-09-15 22:04:00+00:00,211.0,5.24,222.0,6.32,12.81,47.59359,-54.27349
2023-09-15 22:14:00+00:00,214.0,6.16,225.0,7.23,12.49,47.59359,-54.27349
2023-09-15 22:24:00+00:00,226.0,6.89,231.0,7.9,12.49,47.59359,-54.27349
2023-09-15 22:34:00+00:00,227.0,7.4,228.0,8.07,12.49,47.59359,-54.27349
2023-09-15 22:44:00+00:00,231.0,7.28,234.0,7.86,12.49,47.59359,-54.27349
2023-09-15 22:54:00+00:00,217.0,4.38,235.0,6.34,12.49,47.59359,-54.27349
2023-09-15 23:04:00+00:00,315.0,0.01,232.0,0.0,12.49,47.59359,-54.27349
2023-09-15 23:14:01+00:00,241.0,6.95,240.0,7.27,12.41,47.59359,-54.27349
2023-09-15 23:24:01+00:00,239.0,7.19,240.0,7.6,12.41,47.59359,-54.27349
2023-09-15 23:34:01+00:00,238.0,6.56,240.0,6.9,12.41,47.59359,-54.27349
2023-09-15 23:44:01+00:00,238.0,5.67,242.0,6.49,12.41,47.59359,-54.27349
2023-09-15 23:54:01+00:00,244.0,6.27,249.0,7.58,12.41,47.59359,-54.27349
